Location: Bosmont
(49.7318°N, 3.8587°E)
Time: 14:09:37
(UTC+00:00)

IRIDIUM 103 - Pass Details

Date: 08 February 2023
Orbit: 776 x 779 km, 86.4° (Epoch: 21 March)

Event Time Altitude Azimuth Distance (km) Brightness Sun altitude
Rises 17:37:33 0° 359° (N) 3,276 7.4 -8.0°
Reaches altitude 10° 17:39:59 10° 4° (N) 2,343 6.6 -8.4°
Maximum altitude 17:45:07 53° 81° (E) 951 4.4 -9.2°
Drops below altitude 10° 17:50:12 10° 159° (SSE) 2,324 6.7 -10.0°
Sets 17:52:35 0° 164° (SSE) 3,247 7.5 -10.3°
